Temperature
21 23 23 23 23 23 22 21 20 21 21 20 19 19 19 19 19 19 19 18 18 18 18 18 18 18 18 17 17 17 17 17 17 17 17 17 17 17 17 17 16 16 16 16
21 22 23 23 23 23 23 22 21 21 20 19 19 19 19 18 18 18 18 18 18 18 18 18 17 18 18 17 17 17 17 17 17 17 17 17 17 16 16 16 16 16 16 16
19 21 22 21 21 22 21 21 21 20 19 18 18 18 17 18 18 17 18 18 18 18 18 18 18 18 18 17 17 17 17 17 17 17 17 16 16 16 16 16 16 16 16 16
17 19 20 20 20 21 20 19 19 18 18 17 17 17 17 17 17 17 17 18 18 18 18 18 18 17 17 17 17 17 16 16 16 16 16 16 16 16 16 16 16 16 15 15
16 18 19 20 20 20 19 17 17 17 17 17 17 17 16 17 17 17 17 18 18 17 17 17 17 17 17 16 16 16 16 16 16 16 16 16 16 16 16 15 15 15 15 15
16 18 18 18 19 20 18 16 17 16 16 16 16 15 15 16 17 17 17 17 17 17 17 17 16 16 16 16 16 16 16 16 16 16 16 16 15 15 15 15 15 15 15 14
16 17 17 17 18 19 18 16 16 16 16 16 15 15 15 15 16 16 16 16 16 16 16 16 16 16 16 16 16 15 15 15 15 15 15 15 15 15 15 15 14 14 14 14
15 16 16 16 16 15 14 15 15 15 15 15 14 14 14 15 15 15 15 16 16 16 15 15 16 16 16 15 15 15 15 15 15 15 15 15 15 14 14 14 14 14 13 13
14 14 14 14 14 14 14 14 14 14 15 14 14 14 14 14 14 14 14 14 15 15 15 14 15 15 15 15 15 15 15 15 15 15 14 14 14 14 14 13 13 13 13 12
13 13 13 13 13 14 14 14 14 14 14 14 13 13 13 13 13 13 13 13 13 14 14 14 14 14 14 14 15 15 14 14 14 14 14 14 14 13 13 13 13 12 12 12
12 12 12 12 12 13 13 13 13 13 13 13 13 13 13 13 13 12 12 12 13 13 13 13 13 13 13 14 14 14 14 13 13 13 13 13 13 12 12 12 12 12 11 11
12 12 11 11 12 12 12 12 12 12 12 12 12 12 12 12 12 12 12 11 12 12 12 12 12 12 12 13 13 13 13 13 13 12 12 12 12 11 11 11 11 10 10 10
12 12 12 11 11 11 12 12 12 12 12 11 11 12 11 11 11 11 11 11 11 11 11 11 11 11 11 12 12 12 12 12 12 12 12 11 11 11 10 10 9 9 9 9
12 12 10 10 10 11 11 11 11 11 11 11 11 11 11 11 10 10 10 10 10 10 10 10 11 11 11 11 11 11 11 11 11 11 11 10 10 10 10 9 9 8 8 8
11 11 11 10 10 10 10 10 10 10 10 10 10 10 10 10 10 9 9 9 10 10 10 10 10 10 10 10 11 11 11 10 10 10 10 10 9 9 9 8 8 8 8 7
11 10 10 10 9 10 10 10 9 9 9 9 9 9 9 9 9 9 9 9 9 9 9 9 9 9 10 10 10 10 10 10 10 10 9 9 9 8 8 8 7 7 7 7
10 9 9 9 9 9 9 9 9 9 9 9 9 9 9 9 9 8 8 9 9 9 9 9 9 9 9 9 9 9 9 9 9 9 9 8 8 8 7 7 7 6 6 6
11 11 11 10 10 9 9 9 9 9 9 9 9 9 9 9 8 8 8 8 8 8 8 8 8 9 9 9 9 9 9 9 9 8 8 8 8 7 7 7 6 6 5 5
11 11 11 10 10 10 10 9 9 9 9 9 9 9 9 8 8 8 8 8 8 8 8 8 8 8 8 8 8 8 8 8 8 8 8 7 7 7 6 6 5 5 5 5
11 11 10 10 10 10 10 10 9 9 9 9 9 9 8 8 8 8 8 8 8 8 7 8 8 8 8 8 8 8 8 8 7 7 7 7 6 6 5 5 5 5 4 4
10 10 10 10 10 10 10 10 10 9 9 9 9 8 8 8 8 8 8 7 7 7 7 7 8 8 8 8 8 8 7 7 7 7 6 6 6 5 5 5 4 4 4 3
10 10 10 10 10 10 10 10 10 9 9 9 9 8 8 8 8 8 7 7 7 7 7 7 7 7 7 7 7 7 7 7 6 6 6 5 5 5 4 4 4 4 3 3
10 10 10 10 10 10 10 10 10 9 9 9 9 8 8 8 8 8 7 7 7 7 7 7 7 7 7 7 7 6 6 6 6 5 5 5 4 4 4 4 3 3 3 3
10 10 10 10 10 10 10 9 9 9 9 9 9 8 8 8 8 7 7 7 7 6 6 6 6 6 6 6 6 6 6 5 5 5 4 4 4 4 3 3 3 3 3 2
10 10 10 10 10 10 10 9 9 9 9 8 8 8 8 8 8 7 7 6 6 6 6 6 6 6 5 5 5 5 5 5 4 4 4 4 4 3 3 3 3 2 2 2
10 10 10 10 10 10 9 9 9 9 9 8 8 8 8 7 7 7 6 6 6 6 6 5 5 5 5 5 5 5 4 4 4 4 4 4 3 3 3 3 2 2 2 2
10 10 10 10 10 10 9 9 9 9 9 8 8 8 7 7 7 7 6 6 6 5 5 5 5 5 5 5 4 4 4 4 4 3 3 3 3 3 3 2 2 2 2 2
Wind_Speed
3 2 2 1 1 2 2 4 5 5 3 6 6 7 8 8 9 9 7 6 6 6 5 5 6 6 6 5 5 6 7 7 7 7 7 7 7 6 6 7 7 7 7 5
4 5 4 3 3 2 1 1 3 3 1 1 4 6 6 6 8 8 8 7 6 6 6 6 6 7 7 6 6 6 7 6 6 6 6 6 6 6 6 5 5 6 6 5
2 3 5 3 3 2 3 3 2 3 3 4 7 7 5 4 6 6 6 6 6 6 7 7 7 7 7 7 7 7 6 5 6 6 6 6 6 6 6 5 5 5 5 5
2 5 1 5 2 7 9 8 6 4 4 7 9 6 5 5 5 6 6 6 5 5 5 5 5 6 6 7 8 7 6 5 5 6 6 6 6 5 5 5 5 5 5 5
4 2 3 3 4 3 4 4 5 5 6 6 7 7 6 4 4 5 5 6 5 5 5 5 6 6 7 6 7 7 6 6 6 6 7 7 6 6 5 6 6 6 5 5
4 3 3 4 6 4 5 2 4 4 4 4 3 3 1 2 4 5 5 5 6 6 6 5 4 6 8 7 7 6 5 5 5 6 7 7 7 6 6 6 6 7 7 6
4 3 2 4 8 5 3 4 2 1 3 3 2 3 4 4 6 6 6 7 8 8 7 5 4 7 8 7 6 5 6 6 6 6 6 7 7 6 7 7 8 7 7 6
3 3 4 6 5 3 2 1 1 1 3 6 7 7 7 8 8 8 8 8 9 9 8 6 5 6 8 6 5 6 7 8 7 7 7 7 8 8 8 9 8 7 7 7
3 3 1 2 3 1 0 0 1 1 3 7 9 8 9 9 9 9 9 8 8 10 10 8 7 7 8 5 6 9 10 9 9 10 9 8 9 9 8 8 7 7 6 6
3 1 2 4 4 4 3 1 2 4 5 7 9 11 11 10 9 9 9 8 8 10 11 10 9 9 8 7 9 11 11 10 10 10 10 10 9 8 8 7 8 7 7 6
2 1 2 3 4 5 5 5 5 5 6 8 11 11 11 10 9 9 9 8 9 11 11 10 10 10 10 9 10 13 12 11 10 10 10 11 11 9 8 7 6 8 6 5
3 3 3 0 2 4 6 6 6 8 8 8 10 12 12 11 9 10 11 10 10 11 12 11 11 11 10 9 10 12 11 10 9 9 8 9 10 11 15 12 15 14 10 7
4 4 4 4 5 6 8 8 8 9 11 11 10 12 13 12 11 11 12 11 11 11 11 11 12 11 9 9 10 11 10 9 8 8 8 8 8 10 9 10 14 14 13 12
8 7 6 5 6 7 10 11 12 12 12 12 12 13 14 13 12 12 11 11 11 12 11 11 12 11 8 9 10 11 10 10 9 7 7 7 8 7 8 8 7 6 8 11
6 7 8 8 9 9 10 12 14 13 12 12 12 13 14 14 13 12 10 11 12 13 12 12 12 9 8 9 10 10 9 7 7 7 7 8 8 8 7 8 7 5 5 7
10 11 11 11 10 10 10 11 13 12 12 12 12 12 13 13 13 12 11 11 12 11 10 10 10 7 8 9 10 8 8 12 10 8 8 8 7 8 7 7 6 6 5 4
12 10 11 11 10 10 9 10 11 11 11 12 12 12 13 14 13 12 11 10 10 10 9 9 7 6 8 9 8 7 7 9 12 9 7 7 7 7 7 6 6 5 4 5
10 10 11 12 11 11 11 10 10 11 11 12 12 12 12 12 12 10 9 9 10 11 9 8 7 8 8 8 7 6 7 7 7 8 7 7 7 6 6 6 6 6 4 5
10 10 10 10 10 11 11 11 10 11 11 12 12 12 12 11 10 10 9 10 10 9 6 7 10 9 7 7 8 7 8 9 8 8 8 9 8 7 6 6 5 5 5 4
11 12 11 11 11 11 12 12 12 12 11 12 12 12 11 10 10 10 10 8 5 3 4 7 8 7 7 8 10 7 8 8 8 7 7 7 7 6 6 5 5 5 5 4
12 13 13 13 11 11 12 13 13 12 11 11 12 12 10 9 8 8 8 6 3 5 7 9 7 6 6 7 9 7 7 7 7 6 6 6 6 6 5 5 5 5 4 4
12 13 14 13 13 12 11 12 12 12 11 11 11 11 10 9 8 8 6 4 3 7 6 5 4 6 8 9 6 6 7 7 6 6 6 5 5 5 5 5 4 4 4 4
11 12 13 13 13 13 12 11 11 11 11 10 10 10 9 8 6 7 5 2 4 7 6 4 7 11 12 8 6 6 7 7 6 6 5 5 5 5 4 4 4 4 3 3
12 12 11 11 12 13 11 9 9 8 9 9 9 9 10 8 5 4 5 6 7 8 5 6 11 12 10 6 6 6 6 5 5 5 5 4 4 4 4 4 4 3 3 4
12 12 12 12 11 9 9 9 9 9 9 8 8 8 7 6 6 5 5 6 8 7 5 7 10 10 7 5 5 5 5 5 5 4 4 4 4 4 4 3 3 3 3 3
11 10 9 9 9 8 8 8 7 7 8 8 6 6 6 6 7 6 5 5 6 6 5 4 5 6 4 4 5 5 4 4 5 4 4 4 4 4 3 3 4 3 3 4
10 9 8 8 7 7 7 7 7 7 7 8 7 6 6 6 6 5 6 5 4 4 4 3 3 3 4 4 4 4 3 3 3 3 3 3 3 3 3 4 4 4 5 5
Wind_Direction
133 127 105 81 47 73 120 181 184 217 210 229 196 163 152 148 141 141 149 154 151 143 136 146 151 149 156 154 154 155 152 157 164 160 158 161 162 163 164 167 174 175 174 182
34 33 45 25 1 11 41 128 147 122 37 284 115 106 111 135 143 145 158 162 158 149 145 154 159 155 153 152 153 149 151 157 156 155 157 161 162 160 156 157 160 162 166 165
356 357 46 356 328 61 58 20 135 151 195 115 95 88 96 113 128 134 144 145 156 159 164 165 163 157 153 152 139 132 137 140 138 145 148 155 161 157 162 162 150 147 147 144
81 49 193 243 349 82 80 53 50 84 110 113 119 105 85 87 113 120 125 129 136 144 151 156 149 144 140 137 134 133 132 139 137 135 137 131 131 139 150 146 139 133 126 122
111 125 282 317 2 37 87 45 35 85 95 105 116 89 61 50 88 116 121 126 136 138 139 139 141 143 133 136 136 132 134 137 144 142 134 130 130 128 123 117 113 110 108 106
118 138 218 274 324 340 100 75 12 79 113 128 98 97 97 22 77 88 98 106 111 111 104 103 117 128 129 131 129 135 145 147 145 141 136 133 130 119 109 113 115 106 93 87
141 172 226 311 318 3 111 213 307 109 131 123 100 144 140 97 82 79 82 93 97 94 96 96 101 114 121 124 132 142 134 124 116 117 121 121 117 115 114 113 105 97 90 75
139 163 231 338 21 67 209 280 348 59 105 106 112 111 106 95 87 81 76 80 91 92 84 76 81 101 106 116 127 115 107 102 98 97 103 106 106 105 107 109 102 95 90 75
152 175 218 30 82 66 80 211 237 137 124 123 123 121 111 100 95 87 81 79 84 91 83 68 62 81 94 87 93 97 93 89 86 83 77 83 96 101 97 98 100 96 90 82
94 81 40 38 43 29 27 69 112 126 127 124 120 123 115 107 100 93 83 79 82 85 83 70 59 66 76 81 90 95 93 90 87 85 79 71 73 81 90 93 98 96 92 86
112 144 46 27 25 28 43 68 93 101 114 121 117 115 113 108 103 101 93 82 80 84 82 73 66 65 66 75 90 94 92 91 89 86 86 79 72 64 75 70 95 106 102 99
192 186 155 228 16 60 75 78 93 107 104 105 113 113 110 105 99 98 96 92 87 82 80 74 70 66 59 65 83 93 91 88 91 94 93 93 92 76 58 69 72 75 81 88
132 114 110 104 82 81 87 87 92 102 105 102 100 105 105 101 95 93 93 91 88 85 81 76 71 65 57 59 74 84 93 94 94 96 99 101 100 102 92 64 59 62 63 67
114 110 98 93 95 90 92 91 92 93 93 98 102 101 100 97 93 91 90 89 88 84 79 75 71 64 57 65 72 76 82 87 90 92 96 98 98 97 97 96 79 49 42 52
101 108 120 113 102 96 95 98 96 95 94 94 96 99 100 99 95 90 87 87 85 80 75 73 69 58 51 66 73 75 79 83 87 88 91 95 97 95 92 89 84 71 52 42
116 111 115 114 112 108 106 107 107 106 105 102 100 99 99 99 95 90 85 84 86 82 76 72 66 54 55 66 71 71 78 87 90 91 91 93 96 98 96 92 87 77 65 51
132 132 130 127 125 122 119 117 118 117 113 109 108 107 104 101 95 90 85 83 85 82 76 73 67 58 60 64 72 78 81 86 87 87 88 94 97 98 100 98 93 86 71 65
138 140 142 141 138 132 125 120 119 116 115 115 112 108 107 107 105 100 94 87 79 68 58 59 62 61 56 55 67 78 84 84 84 88 89 89 92 93 95 94 91 86 69 63
131 133 132 132 131 130 128 125 122 118 116 114 109 106 105 104 104 100 92 85 81 73 51 52 58 58 54 54 69 79 87 87 84 85 88 90 88 86 89 90 87 85 81 74
129 130 127 124 123 125 127 126 123 120 119 117 112 109 107 106 104 99 91 83 77 89 78 64 58 54 49 57 74 82 87 90 90 88 87 88 91 89 88 88 87 81 74 72
131 132 132 128 125 123 125 125 123 121 120 120 119 120 116 110 107 104 99 88 46 60 69 66 60 51 51 65 76 87 90 92 93 93 92 92 93 92 88 85 85 86 84 77
128 128 127 125 122 119 120 120 121 121 121 121 121 121 116 111 106 94 87 98 88 79 74 64 59 63 68 71 74 84 90 93 94 95 95 95 96 96 90 87 83 83 84 83
124 123 123 124 123 121 117 117 120 122 122 124 126 126 123 122 121 116 105 85 90 84 80 73 75 74 74 70 74 84 90 94 97 100 102 101 101 103 100 94 89 88 87 82
121 121 121 122 121 119 119 121 120 119 118 119 124 126 122 116 102 101 122 117 105 95 87 81 78 78 75 69 72 80 86 92 98 100 102 100 99 100 100 98 96 94 93 89
121 119 118 120 121 125 127 122 114 113 113 112 113 115 120 126 129 132 124 119 113 99 86 80 82 81 75 75 76 79 83 92 101 104 100 101 102 103 105 103 105 106 99 91
117 118 120 121 125 125 121 115 116 120 120 119 116 117 118 118 121 122 120 121 115 107 99 91 92 87 83 84 86 85 81 84 87 96 107 107 106 106 107 108 106 109 110 105
108 109 109 109 109 114 117 120 123 126 128 128 125 124 126 126 125 125 122 119 113 107 104 101 101 97 94 93 92 89 89 93 97 100 103 108 114 114 117 120 119 116 117 114
Height
1454 1450 1450 1453 1454 1455 1461 1467 1475 1472 1470 1465 1462 1462 1465 1466 1468 1471 1472 1474 1475 1476 1477 1479 1481 1482 1484 1486 1487 1489 1491 1493 1495 1497 1500 1502 1505 1507 1510 1512 1515 1518 1522 1524
1456 1451 1450 1454 1453 1453 1455 1458 1462 1465 1468 1461 1461 1463 1465 1467 1468 1469 1471 1472 1474 1475 1477 1479 1481 1482 1483 1485 1487 1489 1491 1492 1494 1496 1499 1501 1503 1506 1508 1510 1513 1516 1518 1521
1468 1458 1456 1466 1458 1456 1458 1458 1460 1467 1467 1462 1463 1465 1467 1468 1469 1470 1471 1472 1473 1474 1476 1478 1480 1481 1482 1484 1487 1489 1491 1492 1494 1496 1498 1500 1503 1505 1507 1509 1511 1514 1516 1519
1472 1469 1479 1470 1454 1454 1459 1462 1461 1462 1462 1462 1465 1467 1468 1469 1470 1471 1472 1472 1474 1475 1476 1478 1479 1481 1483 1485 1486 1488 1490 1492 1494 1496 1498 1500 1502 1504 1506 1508 1511 1513 1515 1517
1478 1479 1474 1464 1457 1458 1463 1469 1465 1465 1464 1465 1465 1466 1470 1470 1471 1471 1472 1473 1474 1475 1476 1477 1479 1481 1483 1485 1486 1488 1490 1492 1494 1496 1497 1499 1501 1503 1505 1508 1509 1511 1513 1515
1474 1478 1483 1470 1459 1455 1460 1473 1467 1465 1465 1465 1465 1471 1473 1471 1470 1471 1473 1473 1474 1475 1476 1478 1479 1481 1482 1484 1486 1488 1490 1493 1495 1496 1498 1499 1501 1503 1505 1508 1509 1510 1512 1514
1472 1476 1473 1466 1459 1456 1471 1474 1468 1466 1465 1465 1466 1469 1471 1471 1471 1472 1473 1473 1474 1475 1477 1478 1480 1482 1483 1484 1486 1488 1491 1493 1495 1496 1498 1500 1502 1504 1506 1508 1508 1510 1511 1513
1472 1478 1478 1465 1461 1466 1469 1466 1465 1465 1465 1465 1466 1468 1470 1470 1471 1472 1473 1473 1474 1476 1478 1479 1481 1482 1483 1485 1486 1489 1491 1493 1495 1497 1498 1500 1502 1504 1506 1507 1509 1510 1511 1512
1469 1474 1469 1466 1465 1466 1465 1465 1464 1464 1465 1465 1466 1468 1470 1471 1472 1474 1475 1475 1476 1477 1478 1480 1482 1482 1483 1486 1488 1489 1491 1493 1495 1497 1499 1501 1502 1504 1506 1507 1509 1510 1512 1512
1468 1468 1467 1466 1465 1464 1464 1463 1463 1463 1464 1465 1464 1466 1469 1472 1474 1475 1476 1478 1478 1479 1480 1481 1483 1485 1486 1487 1489 1490 1492 1494 1496 1498 1499 1501 1503 1505 1507 1508 1510 1511 1512 1513
1468 1468 1467 1466 1466 1464 1463 1462 1461 1463 1464 1465 1466 1469 1471 1473 1476 1477 1478 1481 1481 1481 1482 1484 1486 1487 1488 1490 1490 1491 1493 1495 1497 1499 1501 1503 1504 1506 1508 1510 1512 1512 1513 1514
1467 1466 1467 1467 1465 1464 1463 1462 1462 1463 1465 1467 1468 1471 1473 1475 1478 1479 1481 1483 1485 1485 1486 1487 1488 1489 1491 1492 1493 1493 1495 1497 1499 1501 1503 1505 1506 1508 1510 1512 1513 1514 1515 1515
1462 1464 1465 1466 1466 1465 1464 1464 1464 1465 1466 1468 1471 1474 1476 1478 1481 1483 1485 1486 1487 1488 1489 1491 1492 1493 1494 1495 1496 1496 1498 1499 1501 1503 1505 1507 1508 1509 1511 1513 1515 1515 1516 1516
1462 1464 1466 1466 1467 1467 1466 1467 1467 1468 1470 1472 1474 1477 1479 1482 1484 1486 1488 1490 1491 1492 1493 1494 1495 1497 1498 1499 1500 1500 1501 1503 1505 1506 1508 1510 1511 1512 1513 1514 1516 1517 1518 1518
1463 1464 1466 1467 1468 1469 1470 1470 1471 1473 1475 1477 1479 1481 1483 1486 1488 1491 1493 1494 1495 1496 1498 1499 1500 1501 1503 1504 1504 1505 1506 1507 1508 1510 1511 1513 1514 1515 1516 1517 1518 1519 1519 1520
1465 1466 1468 1469 1471 1472 1473 1474 1475 1478 1480 1482 1484 1487 1489 1491 1493 1496 1498 1499 1500 1501 1503 1503 1504 1506 1507 1507 1508 1508 1510 1511 1512 1513 1515 1516 1517 1518 1519 1520 1520 1521 1521 1521
1464 1467 1469 1471 1473 1475 1477 1478 1480 1482 1485 1487 1489 1491 1494 1496 1498 1500 1503 1504 1505 1506 1507 1508 1509 1510 1511 1511 1512 1512 1513 1514 1515 1516 1517 1519 1519 1520 1521 1521 1522 1522 1522 1522
1464 1467 1469 1472 1475 1477 1480 1483 1485 1487 1489 1491 1493 1496 1498 1500 1502 1505 1507 1508 1509 1510 1511 1512 1513 1514 1514 1515 1515 1516 1516 1517 1518 1519 1520 1521 1521 1522 1523 1523 1523 1523 1523 1523
1466 1469 1471 1474 1477 1480 1483 1486 1489 1491 1493 1496 1498 1500 1503 1505 1507 1509 1511 1512 1513 1513 1515 1516 1516 1517 1517 1518 1518 1519 1519 1520 1521 1522 1522 1523 1523 1524 1524 1524 1524 1524 1524 1524
1468 1471 1474 1477 1480 1483 1486 1489 1492 1494 1497 1499 1502 1504 1507 1509 1511 1513 1514 1515 1516 1518 1519 1519 1519 1520 1520 1521 1521 1522 1522 1523 1523 1524 1524 1524 1525 1525 1525 1525 1525 1525 1525 1524
1470 1473 1477 1480 1483 1486 1489 1492 1495 1498 1501 1503 1505 1508 1510 1513 1515 1516 1517 1518 1520 1521 1522 1522 1522 1523 1523 1524 1524 1524 1525 1525 1525 1525 1525 1526 1526 1526 1526 1526 1526 1526 1525 1524
1472 1476 1479 1482 1486 1489 1493 1496 1499 1501 1504 1507 1509 1511 1513 1515 1517 1519 1520 1522 1523 1524 1524 1524 1525 1525 1525 1526 1526 1526 1526 1526 1526 1526 1527 1527 1527 1527 1527 1527 1526 1526 1525 1525
1475 1478 1482 1486 1489 1493 1497 1500 1503 1505 1508 1510 1512 1514 1516 1518 1520 1521 1522 1524 1525 1525 1526 1526 1527 1527 1527 1527 1527 1527 1527 1527 1527 1527 1528 1528 1528 1528 1527 1527 1527 1526 1525 1525
1478 1482 1486 1490 1493 1496 1500 1503 1506 1509 1511 1513 1515 1517 1519 1520 1522 1523 1524 1525 1526 1527 1527 1528 1528 1528 1528 1528 1528 1528 1528 1528 1528 1529 1528 1529 1529 1528 1528 1527 1527 1526 1525 1524
1482 1486 1490 1493 1496 1499 1503 1506 1509 1511 1513 1516 1518 1520 1521 1522 1523 1524 1526 1527 1528 1528 1529 1529 1530 1530 1530 1530 1530 1530 1530 1530 1530 1530 1529 1529 1529 1529 1528 1528 1527 1526 1525 1524
1486 1489 1493 1496 1499 1503 1505 1508 1511 1513 1515 1517 1519 1521 1522 1524 1525 1526 1527 1528 1529 1529 1530 1530 1531 1531 1531 1531 1531 1531 1531 1531 1531 1530 1530 1530 1530 1529 1529 1528 1527 1527 1525 1524
1490 1493 1497 1500 1503 1506 1508 1511 1513 1515 1517 1519 1520 1522 1524 1525 1526 1527 1528 1529 1529 1530 1531 1531 1532 1532 1532 1532 1532 1532 1532 1532 1531 1531 1531 1531 1530 1530 1529 1528 1528 1527 1525 1524